Flag for U.S.A. Weather past 2 weeks in Philadelphia, Pennsylvania, U.S.A.

Now
40 °F

Light rain. Fog.


Feels Like: 35 °F
Forecast: 20 / 37 °F
Wind: 7 mph from Northwest

Location: Philadelphia International Airport

Current Time: Mar 5, 2015 at 1:56:37 AM

Latest Report: Mar 5, 2015 at 12:54 AM


Visibility: 6 mi

Pressure: 29.95 "Hg

Humidity: 89%

Dew point: 37 °F

Location of PhiladelphiaLocation

Historic Weather in Philadelphia — Graph

°F

Philadelphia temperature yesterday

Maximum temperature yesterday: 43 °F (at 1:54 PM)
Minimum temperature yesterday: 34 °F (at 12:54 AM)
Average temperature yesterday: 38 °F

Past Weeks' High & Low Weather Summary

 TemperatureHumidityPressure
High45 °F (Feb 22, 3:54 PM)97% (Mar 4, 5:54 AM)30.86 "Hg (Mar 4, 5:54 AM)
Low2 °F (Feb 20, 6:54 AM)21% (Feb 28, 3:54 PM)29.75 "Hg (Feb 18, 2:54 PM)
Average26 °F58%30.21 "Hg
* Reported Feb 18 12:54 AM — Mar 5 12:54 AM, Philadelphia, Weather by CustomWeather, © 2015

Note: Actual official high and low records may vary slightly from our data, if they occured in-between our weather recording intervals... More about our weather records

Advertising

Philadelphia weather history for previous 24 hours

 ConditionsComfort  
Time TempWeatherWind HumidityBarometerVisibility
12:54 AM
Thu, Mar 5
40 °FLight rain. Fog.7 mph89%29.95 "Hg6 mi
11:54 PM
Wed, Mar 4
40 °FLight rain. Fog.6 mph93%29.94 "Hg5 mi
10:58 PM41 °FLight rain. Fog.8 mph96%29.94 "Hg3 mi
9:54 PM41 °FLight rain. Fog.No wind96%29.94 "Hg2 mi
8:54 PM41 °FLight rain. Fog.5 mph96%29.95 "Hg1 mi
8:02 PM41 °FLight rain. Fog.No wind96%29.92 "Hg1 mi
7:54 PM41 °FLight rain. Fog.No wind96%29.91 "Hg2 mi
6:54 PM41 °FLight rain. Fog.No wind96%29.90 "Hg2 mi
5:54 PM40 °FLight rain. Fog.No wind93%29.91 "Hg2 mi
4:54 PM42 °FLight rain. Fog.No wind96%29.91 "Hg2 mi
3:54 PM42 °FLight rain. Fog.6 mph92%29.89 "Hg2 mi
2:54 PM42 °FLight rain. Fog.5 mph89%29.90 "Hg4 mi
1:54 PM43 °FFog.3 mph89%29.88 "Hg4 mi
12:54 PM42 °FFog.No wind89%29.88 "Hg4 mi
11:54 AM41 °FFog.7 mph89%29.91 "Hg4 mi
10:54 AM39 °FFog.8 mph93%29.91 "Hg3 mi
9:54 AM38 °FLight rain. Fog.7 mph93%29.90 "Hg2 mi
8:54 AM37 °FLight rain. Fog.10 mph93%29.92 "Hg3 mi
7:54 AM36 °FLight rain. Fog.9 mph92%29.90 "Hg3 mi
6:54 AM35 °FFog.8 mph92%29.86 "Hg3 mi
5:54 AM34 °FDrizzle. Fog.8 mph97%29.85 "Hg5 mi
4:54 AM35 °FFog.10 mph92%29.81 "Hg5 mi
4:01 AM35 °FFog.12 mph92%29.81 "Hg5 mi
3:54 AM35 °FLight rain. Fog.13 mph92%29.80 "Hg4 mi
3:03 AM34 °FLight rain. Fog.10 mph92%29.82 "Hg2 mi
2:54 AM34 °FLight rain. Fog.12 mph92%29.82 "Hg4 mi
1:54 AM34 °FDrizzle. Fog.6 mph92%29.82 "Hg4 mi
Weather by CustomWeather, © 2015

See weather overviewHow to use our weather pages